User: anonymous   Login
Location: Unspecified
(0.0000°N, 0.0000°E)
Time: 09:21:31
(UTC+00:00)
Language:

FAISAT - Orbit

View from above orbital plane
View from above orbital plane
View from above satellite
View from above satellite

Ground track
Ground track

The orbit data is extracted from the following two-line orbital elements,

1 23465U 95002C   17086.86160529 +.00000041 +00000-0 +28063-4 0  9993
2 23465 082.9306 350.8351 0038091 150.3715 282.9909 13.71873646110252
Epoch (UTC): 27 March 2017 20:40:42
Eccentricity: 0.0038091
inclination: 82.9306°
perigee height: 965 km
apogee height: 1021 km
right ascension of ascending node: 350.8351°
argument of perigee: 150.3715°
revolutions per day: 13.71873646
mean anomaly at epoch: 282.9909°
orbit number at epoch: 11025

The dashed part of the orbit path shows where the satellite is in the earth's shadow,  

DLR